Regional Weather Roundup
Issued by NWS Goodland, KS

Home | Current Version | Previous Version | Graphics & Text | Print | Product List | Glossary On
Versions: 1 2 3 4 5 6 7 8 9 10 11 12 13 14 15 16 17 18 19 20 21 22 23 24 25 26 27 28 29 30 31 32 33 34 35 36 37 38 39 40 41 42 43 44 45 46 47 48 49 50
635
ASUS43 KGLD 180708
RWRGLD

GOODLAND FORECAST AREA HOURLY WEATHER ROUNDUP
NATIONAL WEATHER SERVICE GOODLAND KS
100 AM MDT WED OCT 18 2017

...OFFICIAL OBSERVATIONS...

CITY           SKY/WX    TMP DP  RH WIND       PRES   REMARKS
GOODLAND KS    CLEAR     54  35  48 SW12      29.99F
HILL CITY KS   CLEAR     55  43  63 SW10      29.97F
IMPERIAL NEB   CLEAR     46  29  51 W5        29.96F
MCCOOK NEB     CLEAR     51  37  58 SW7       29.95S
AKRON CO       CLOUDY    56  22  26 SW17      30.02F
BURLINGTON CO  CLOUDY    49  36  61 W10       30.04S
LIMON CO       CLOUDY    32  27  81 N6        30.11F
$$

...UNOFFICIAL OBSERVATIONS...

CITY           SKY/WX    TMP DP  RH WIND       PRES   REMARKS
NORTON KS      CLEAR     54  37  54 SW9       29.94
SHARON SPRINGS   N/A     45  37  73 CALM        N/A
TRENTON NEB      N/A     54  32  43 W6          N/A
KIT CARSON CO    N/A     43  31  63 MISG        N/A
YUMA CO        FAIR      45  28  53 SW9       30.00S
$$




USA.gov is the U.S. government's official web portal to all federal, state and local government web resources and services.